COSMOS 2535 DEB, 44640

Orbit data source: Space-Track

COSMOS 2535 DEB, 44640 is space debris in SSO originally from a launch on Wed, 10 Jul 2019 UTC launched from the Plesetsk Missile And Space Complex (PKMTR). Debris objects in space refer to the collection of defunct objects orbiting the Earth. Examples of debris include non-operational satellites, rocket bodies, and fragments generated from explosions, collisions, or faulty payload assembly.

Loading next visibility...
Identifier
44640, 2019-039L
Orbit
SSO
Country
Flag of CISCIS
Related business
Manufacturer
Unknown
Mission
Spacecraft
Bus & Motor
Unknown
Mass
Unknown
Launch date (UTC)
2019-07-10 (7 years ago)
Launch vehicle
Unknown
Launch site
Plesetsk Missile And Space Complex (PKMTR)
Object type
Payload
Rocket body
Debris
Shape & HBR
Unknown shape, 0.1 m
Radar Cross Section
Small (<0.1 m²)

Expand to show TLE details & history
Last TLE update: 1 day ago

TLE from 1 day ago
0 COSMOS 2535 DEB
1 44640U 19039L   26121.69981007  .00001237  00000-0  16941-3 0  9999
2 44640  97.7617 107.5734 0057942 223.8548 135.8057 14.79110657353611
Epoch: 2026-05-01T16:47Z
TLE epoch observation values (Epoch: 2026-05-01T16:47:43.590Z)
Latitude
0.00006°
Longitude
-3.98654°
Altitude
664.4 km
Speed
7.509 km/s
True Right ascension
07h 10m 17s
True Declination
0° 00' 00"
Sunlit
Object was in daylight at epoch
Visualization orbit readout
Latitude
Unknown
Longitude
Unknown
Altitude
Unknown
Speed
Unknown
Apparent Right ascension
Unknown
Apparent Declination
Unknown
Sunlit
N/A
Visualization observer readout
Local Sidereal Time
06:00:30
Azimuth
Unknown
Elevation
Unknown
Doppler factor
Unknown
Orbital elements
Apogee altitude
669.77 km
Perigee altitude
588.567 km
Semi-major axis
7,007.306 km
Eccentricity
0.00579
Inclination
97.7617°
RAAN
107.5734°
Arg. of periapsis
223.8548°
True anomaly
136.26615°
Mean anomaly
135.8057°
Eccentric anomaly
136.03616°
Mean motion
3.70013 °/min
Orbital period
97.29 mins
BSTAR
0.00016941
Loading maneuver chart data...
Computing Atmospheric mass density...
Loading historical data...
Loading historical data...
Loading historical data...
Loading historical data...
Loading historical data...
Loading historical data...
Loading historical data...

Documentation

Showing up to 5 results
|